Location: Middelsbur
(53.6609°N, 7.5020°E)
Time: 23:41:10
(UTC+00:00)

Cosmos 1825 - Pass Details

Date: 06 July 2020
Orbit: 502 x 509 km, 82.5° (Epoch: 14 August)

Event Time Altitude Azimuth Distance (km) Brightness Sun altitude
Exits shadow 21:39:49 13° 136° (SE) 1,552 4.0 -9.8°
Maximum altitude 21:42:18 23° 89° (E) 1,119 3.7 -10.0°
Drops below altitude 10° 21:45:21 10° 35° (NE) 1,741 5.3 -10.2°
Sets 21:47:46 0° 21° (NNE) 2,633 6.5 -10.3°
